Regional Weather Roundup
Issued by NWS

Home | Current Version | Previous Version | Text Only | Print | Product List | Glossary Off
Versions: 1 2 3 4 5 6 7 8 9 10 11 12 13 14 15 16 17 18 19 20 21 22 23 24 25 26 27 28 29 30 31 32 33 34 35 36 37 38 39 40 41 42 43 44 45 46 47 48 49 50

000
ASUS43 KLOT 291009
RWRIL

ILLINOIS REGIONAL WEATHER ROUNDUP
NATIONAL WEATHER SERVICE CHICAGO/ROMEOVILLE IL
500 AM CDT MON AUG 29 2016

NOTE: "FAIR" INDICATES FEW OR NO CLOUDS BELOW 12,000 FEET WITH NO
SIGNIFICANT WEATHER AND/OR OBSTRUCTIONS TO VISIBILITY.

* THESE STATIONS ARE NOT UNDER NWS QUALITY CONTROL. THEY ALSO MAY NOT
  REPORT WEATHER SUCH AS PRECIPITATION OR FOG.

ILZ001-002-007-009-015-016-024-291100-
NORTHWEST ILLINOIS

CITY           SKY/WX    TMP DP  RH WIND       PRES   REMARKS
MOLINE         PTCLDY    70  68  93 NE5       30.18S
STERLING*      CLEAR     68  68 100 E5        30.20R FOG
SAVANNA*       PTCLDY    67  66  97 CALM      30.20S
$$

ILZ003-004-008-010-011-017-018-291100-
NORTH CENTRAL ILLINOIS

CITY           SKY/WX    TMP DP  RH WIND       PRES   REMARKS
ROCKFORD       NOT AVBL
FREEPORT*      FOG       66  66  98 NE5       30.24S VSB 1/4
ROCHELLE*      CLEAR     68  67  98 NE6       30.21F FOG
DE KALB*       CLEAR     67  66  97 NE3       30.23S FOG
$$

ILZ005-006-012>014-019>023-291100-
NORTHEAST ILLINOIS

CITY           SKY/WX    TMP DP  RH WIND       PRES   REMARKS
CHICAGO-OHARE  PTCLDY    71  68  90 NE7       30.21S
CHICAGO-MIDWAY PTCLDY    73  68  84 NE7       30.20S
AURORA         CLEAR     69  67  93 NE5       30.21S FOG
LANSING*       CLEAR     70  70 100 CALM      30.20S
JOLIET*        CLEAR     70  69  97 CALM      30.20S FOG
WAUKEGAN       CLEAR     67  66  97 N5        30.22S
DUPAGE AIRPORT MOCLDY    68  66  93 N3        30.21S
KANKAKEE*      CLEAR     69  68  98 N3        30.19S
WHEELING       CLEAR     69  67  93 CALM      30.23S
MORRIS*        CLEAR     68  67  98 CALM      30.18F FOG
ROMEOVILLE*    CLEAR     69  69 100 NE6       30.20S
$$

LMZ740>746-291100-
SOUTHERN LAKE MICHIGAN

STATION/POSITION SKY/WX   TEMP    WIND        PRES    VSBY  WAVE
                          AIR SEA DIR/SP/G                  HT/PER
                          (F)     (DEG/KT/KT) (MB)    (MI)  (FT/S)
SOUTHERN BUOY              73 75   70/  6/  8 1023.1R         0
WILMETTE HARBOR            73 72   90/  4/  6   N/A           1/ 3
HARRISON CRIB              75      80/  8/  9   N/A
BURNHAM HARBOR             71      10/  4/  5   N/A
CALUMET HARBOR             73      10/  3/  4 1022.1F
BURNS HARBOR               70      80/  5/  7 1023.0S
MICHIGAN CITY              70      20/  3/  6   N/A
MICHIGAN CITY 6N           72 75   50/  4/  6   N/A           1/ 4
ST. JOSEPH                 71 75   50/  6/  8 1022.9R         1/ 3
$$

ILZ025>027-034>036-040-047-049-050-058-095>099-291100-
WEST-CENTRAL ILLINOIS

CITY           SKY/WX    TMP DP  RH WIND       PRES   REMARKS
QUINCY         CLEAR     71  71 100 SE5       30.15R
GALESBURG*     PTCLDY    69  67  96 CALM      30.18R
MACOMB*        CLEAR     67  67 100 NE3       30.19S FOG
JACKSONVILLE*  CLEAR     69  68  97 E3        30.15S FOG
PITTSFIELD*    CLEAR     71  70  98 CALM      30.15F FOG
$$

ILZ028>032-037-038-041>044-048-051>054-059>061-291100-
CENTRAL ILLINOIS

CITY           SKY/WX    TMP DP  RH WIND       PRES   REMARKS
PONTIAC        CLEAR     68  68 100 N3        30.19S FOG
BLOOMINGTON    CLEAR     69  67  93 NE3       30.18F
DECATUR        CLEAR     70  68  93 E3        30.17R
PEORIA         CLEAR     69  69 100 E6        30.17S
LACON*         CLEAR     67  66  97 CALM      30.18S FOG
LINCOLN*       CLEAR     70  70 100 CALM      30.16F
SPRINGFIELD    CLEAR     72  70  93 CALM      30.15F FOG
TAYLORVILLE    CLEAR     70  70 100 CALM      30.16R
$$

ILZ033-039-045-046-055>057-062-063-291100-
EAST-CENTRAL ILLINOIS

CITY           SKY/WX    TMP DP  RH WIND       PRES   REMARKS
CHAMPAIGN      CLEAR     69  67  93 CALM      30.17F FOG
RANTOUL*       CLEAR     70  69  98 CALM      30.17S
MATTOON        CLEAR     69  67  93 CALM      30.16S
PARIS*         CLEAR     67  67 100 CALM      30.17S
$$

ILZ079-100>102-291100-
SOUTHWEST ILLINOIS

CITY           SKY/WX    TMP DP  RH WIND       PRES   REMARKS
ALTON          CLEAR     70  69  98 CALM      30.13F FOG
BELLEVILLE     CLEAR     72  72 100 N3        30.11F
CAHOKIA*       CLEAR     74  71  91 NW3       30.12S
SPARTA*        CLEAR     73  72  98 CALM      30.13S
$$

ILZ064>066-069>071-074>076-080>082-084>086-088>090-092>094-291100-
SOUTH-CENTRAL ILLINOIS

CITY           SKY/WX    TMP DP  RH WIND       PRES   REMARKS
CARBONDALE     FOG       70  69  97 CALM      30.12R VSB 1/4
CAIRO*         CLEAR     70  70 100 CALM      30.10S FOG
EFFINGHAM*     CLEAR     69  69 100 N3        30.17S
MARION         CLEAR     73  73 100 E3        30.13R FOG
MT. VERNON     CLEAR     70  64  83 N6        30.14R
CENTRALIA*     CLEAR     71  71  99 NE5       30.13R
SALEM*         CLEAR     73  70  90 E6        30.15R
METROPOLIS*    CLEAR     73  72  98 CALM      30.11S FOG
$$

ILZ067-068-072-073-078-083-087-091-291100-
SOUTHEAST ILLINOIS

CITY           SKY/WX    TMP DP  RH WIND       PRES   REMARKS
LAWRENCEVILLE  CLEAR     70  70 100 CALM      30.15S
FLORA*         CLEAR     71  69  93 NE3       30.16R
FAIRFIELD*     CLEAR     72  70  92 CALM      30.14R
HARRISBURG*    CLEAR     74  73  98 E5        30.13S
ROBINSON*      FOG       65  65 100 CALM        N/A  VSB 3/4
CARMI*         CLEAR     71  71 100 CALM      30.13S
$$

ABBREVIATIONS USED IN REMARKS
   TC - TEMPERATURE IN CELSIUS
  WCI - WIND CHILL INDEX
   HX - HEAT INDEX
  VSB - VISIBILITY
$$





USA.gov is the U.S. government's official web portal to all federal, state and local government web resources and services.